GAOFEN-1 04

Last updated on Tue Sep 15 2026 00:02:55 GMT+0000 (Coordinated Universal Time)

1 43262U 18031D 26257.64183428 .00000343 00000+0 56601-4 0 9999 2 43262 98.0444 319.9276 0002199 103.6284 256.5171 14.76476557455889
UTC large
Height (km)
Speed (km/s)
/
Latitude / Longitude
Inclination (degrees)
Orbital Period (minutes)
Azimuth
Elevation
Range (km)
Doppler Factor

Next 0 passes for location: London (51.5072 / 0.1276)

No passes found over London.
GAOFEN-1 04